Regional Weather Roundup
Issued by NWS

Home | Current Version | Previous Version | Graphics & Text | Print | Product List | Glossary On
Versions: 1 2 3 4 5 6 7 8 9 10 11 12 13 14 15 16 17 18 19 20 21 22 23 24 25 26 27 28 29 30 31 32 33 34 35 36 37 38 39 40 41 42 43 44 45 46 47 48 49 50
000
ASUS43 KFSD 290210
RWRSD

WEATHER ROUNDUP FOR SOUTH DAKOTA
NATIONAL WEATHER SERVICE SIOUX FALLS SD
900 PM CDT SAT MAR 28 2015

NOTE: "FAIR" INDICATES FEW OR NO CLOUDS BELOW 12,000 FEET WITH NO
SIGNIFICANT WEATHER AND/OR OBSTRUCTIONS TO VISIBILITY.


SDZ001>005-009-010-012>017-290300-
NORTHWEST AND NORTH CENTRAL SOUTH DAKOTA

CITY           SKY/WX    TMP DP  RH WIND       PRES   REMARKS
BUFFALO          N/A     53  43  68 NW29G38   29.67R
FAITH            N/A     61  43  51 NW31G43   29.66R
MOBRIDGE       CLOUDY    55  35  47 SE21      29.49F
$$

SDZ012>016-024>037-041>051-057-063-072>074-290300-
SOUTHWEST AND SOUTH CENTRAL SOUTH DAKOTA

CITY           SKY/WX    TMP DP  RH WIND       PRES   REMARKS
RAPID CTY ARPT MOCLDY    65  40  39 NW48G58   29.67R
PIERRE         MOCLDY    58  35  42 SE22      29.53F
CUSTER         MOCLDY    60  28  29 NW14G24   29.76R
ELLSWORTH AFB  CLOUDY    64  41  42 NW39G58   29.67R
PHILIP         PTCLDY    71  27  19 SW9       29.47F
PINE RIDGE     CLOUDY    75  24  15 W14       29.62R
SPEARFISH      FAIR      57  36  44 NW26G35   29.82R
WINNER         FAIR      62  33  33 S28G38    29.60F
$$

SDZ004>011-016>023-039-040-290300-
NORTHEAST SOUTH DAKOTA

CITY           SKY/WX    TMP DP  RH WIND       PRES   REMARKS
ABERDEEN       PTCLDY    50  31  48 S24G33    29.64F
WATERTOWN      CLEAR     44  28  53 S18       29.76F
SISSETON         N/A     44  31  60 S18       29.72F
$$

SDZ017-020-022-023-036>040-048>070-290300-
SOUTHEAST SOUTH DAKOTA

CITY           SKY/WX    TMP DP  RH WIND       PRES   REMARKS
SIOUX FALLS    CLEAR     47  28  47 S20G25    29.87F
HURON          CLEAR     50  32  50 S24G35    29.71F
CHAMBERLAIN    CLEAR     53  33  46 SE20      29.64F
MITCHELL       CLEAR     50  33  52 SE24      29.76F
YANKTON        CLEAR     46  30  53 SE18G24   29.87F
$$

ABBREVIATIONS USED IN REMARKS
   TC - TEMPERATURE IN CELSIUS
  WCI - WIND CHILL INDEX
   HX - HEAT INDEX
  VSB - VISIBILITY




USA.gov is the U.S. government's official web portal to all federal, state and local government web resources and services.